Location: Ethel Rock
(53.4667°N, 4.5667°W)
Time: 01:25:42
(UTC+00:00)

SAR-Lupe-1 - Pass Details

Date: 24 October 2020
Orbit: 480 x 485 km, 98.2° (Epoch: 22 November)

Event Time Altitude Azimuth Distance (km) Brightness Sun altitude
Rises 04:57:50 0° 161° (SSE) 2,535 7.9 -19.1°
Reaches altitude 10° 04:59:53 10° 161° (SSE) 1,660 6.9 -18.8°
Maximum altitude 05:03:27 83° 73° (ENE) 493 4.0 -18.3°
Drops below altitude 10° 05:07:03 10° 346° (NNW) 1,673 6.7 -17.8°
Sets 05:09:07 0° 346° (NNW) 2,558 7.6 -17.5°
